アトラス彗星

C/2018 A3 ( ATLAS )

English version
Home page
Updated on June 15, 2021

---------------------------------------------------------------------

・ プロフィール

発見日 2018年1月10日
発見光度 18.7等
発見者 Asteroid Terrestrial-impact Last Alert System (ATLAS) search program

・ 写真集

・ 軌道要素

Epoch 2018 Dec. 28.0 TT = JDT 2458480.5
T 2019 Jan. 12.86424 TT                                 Rudenko
q   3.2767118            (2000.0)            P               Q
z  +0.0020102      Peri.   86.42671     -0.24776481     +0.95551935
 +/-0.0000003      Node   194.27957     +0.40380218     +0.25195709
e   0.9934130      Incl.  139.56202     +0.88065680     +0.15329836
From 1607 observations 2018 Jan. 10-2020 Oct. 24, mean residual 0".7.

・ 星図

・ 光度変化

        m1 = 8.0 + 5 logΔ + 10.0 log r

---------------------------------------------------------------------

軌道要素はM.P.E.C. 2021-F20に掲載されたものです。
星図はステラナビゲータ Ver.10 (アストロアーツ) で作成したものです。
光度グラフはComet for Windowsで作成したものです。

---------------------------------------------------------------------

Copyright(C) Seiichi Yoshida (comet@aerith.net). All rights reserved.